EIN146 KSFO-EIDW

Flight info

Callsign EIN146
Flight time N/A
Altitude 35000
Route SNTNA2 DEDHD DCT KO51E DCT KO66G DCT KU78I DCT KU90K DCT ITREK DCT ELTAX DCT YYQ/N0475F370 DCT 61N090W 6430N08000W 6630N07000W/M080F370 DCT DARUB DCT 67N050W/M080F390 66N040W 64N030W 6030N02000W DCT AGORI/N0447F390 DCT OSBOX DCT REVNU DCT OLAPO OLAPO3R
Aircraft A333/H-SDE3GHIJ2J3J5M1RVWXY/LB2D1

Departure

Time N/A
Airport San Francisco International Airport (KSFO)

Arrival

Time 2026-05-04 09:34
Airport Dublin Airport (EIDW)
Time Latitude Longitude Altitude Speed Heading
2026-05-04 09:09 54.26782 -9.26348 35530 ft 442 kts 109°
2026-05-04 09:09 54.25627 -9.21469 35225 ft 442 kts 109°
2026-05-04 09:09 54.24468 -9.16591 34863 ft 442 kts 109°
2026-05-04 09:09 54.23309 -9.11725 34427 ft 441 kts 109°
2026-05-04 09:10 54.22148 -9.06861 33914 ft 441 kts 109°
2026-05-04 09:10 54.20982 -9.01993 33348 ft 441 kts 109°
2026-05-04 09:10 54.19834 -8.97211 32772 ft 442 kts 109°
2026-05-04 09:10 54.18649 -8.92284 32177 ft 442 kts 109°
2026-05-04 09:11 54.17496 -8.87496 31563 ft 442 kts 109°
2026-05-04 09:11 54.16323 -8.82644 30963 ft 442 kts 108°
2026-05-04 09:11 54.15136 -8.77731 30374 ft 441 kts 108°
2026-05-04 09:11 54.13968 -8.72895 29677 ft 441 kts 108°
2026-05-04 09:12 54.12796 -8.68051 29014 ft 440 kts 108°
2026-05-04 09:12 54.11522 -8.63370 28085 ft 442 kts 113°
2026-05-04 09:14 54.01043 -8.31589 19506 ft 422 kts 117°
2026-05-04 09:14 53.99616 -8.27235 19076 ft 420 kts 117°
2026-05-04 09:14 53.98203 -8.22925 18564 ft 415 kts 117°
2026-05-04 09:14 53.96806 -8.18670 18045 ft 408 kts 117°
2026-05-04 09:15 53.95434 -8.14503 17568 ft 400 kts 117°
2026-05-04 09:15 53.94090 -8.10423 17125 ft 392 kts 117°
2026-05-04 09:15 53.92765 -8.06400 16744 ft 388 kts 117°
2026-05-04 09:15 53.91451 -8.02413 16325 ft 386 kts 117°
2026-05-04 09:17 53.81174 -7.71480 12672 ft 368 kts 118°
2026-05-04 09:18 53.79920 -7.67723 12242 ft 364 kts 118°
2026-05-04 09:18 53.78677 -7.64011 11825 ft 361 kts 118°
2026-05-04 09:18 53.77442 -7.60331 11415 ft 358 kts 118°
2026-05-04 09:18 53.76215 -7.56685 11009 ft 354 kts 118°
2026-05-04 09:19 53.75022 -7.53141 10874 ft 340 kts 118°
2026-05-04 09:19 53.73872 -7.49734 10739 ft 326 kts 118°
2026-05-04 09:19 53.72773 -7.46468 10614 ft 313 kts 118°
2026-05-04 09:19 53.71712 -7.43328 10499 ft 301 kts 118°
2026-05-04 09:20 53.70698 -7.40323 10391 ft 289 kts 118°
2026-05-04 09:20 53.69716 -7.37433 10297 ft 279 kts 118°
2026-05-04 09:20 53.68762 -7.34613 10197 ft 274 kts 118°
2026-05-04 09:20 53.67816 -7.31827 10121 ft 272 kts 118°
2026-05-04 09:21 53.66874 -7.29053 9855 ft 273 kts 118°
2026-05-04 09:21 53.65933 -7.26278 9508 ft 272 kts 118°
2026-05-04 09:21 53.64991 -7.23506 9221 ft 271 kts 118°
2026-05-04 09:21 53.64056 -7.20758 8933 ft 269 kts 118°
2026-05-04 09:22 53.63120 -7.18032 8643 ft 268 kts 118°
2026-05-04 09:22 53.62194 -7.15319 8357 ft 266 kts 118°
2026-05-04 09:22 53.61267 -7.12621 8063 ft 266 kts 118°
2026-05-04 09:22 53.60358 -7.09960 7784 ft 265 kts 118°
2026-05-04 09:23 53.59438 -7.07274 7509 ft 264 kts 118°
2026-05-04 09:23 53.58521 -7.04603 7231 ft 263 kts 118°
2026-05-04 09:23 53.57609 -7.01943 6956 ft 261 kts 119°
2026-05-04 09:23 53.56700 -6.99310 6676 ft 259 kts 118°
2026-05-04 09:25 53.50467 -6.81270 4822 ft 251 kts 117°
2026-05-04 09:25 53.49588 -6.78738 4536 ft 250 kts 117°
2026-05-04 09:26 53.48714 -6.76227 4266 ft 246 kts 117°
2026-05-04 09:26 53.47860 -6.73776 4028 ft 238 kts 117°
2026-05-04 09:26 53.47063 -6.71446 4010 ft 221 kts 115°
2026-05-04 09:26 53.46398 -6.69217 4002 ft 204 kts 111°
2026-05-04 09:27 53.45926 -6.67035 4025 ft 194 kts 102°
2026-05-04 09:27 53.45678 -6.64861 3945 ft 187 kts 93°
2026-05-04 09:27 53.45587 -6.62703 3824 ft 184 kts 89°
2026-05-04 09:27 53.45517 -6.60555 3684 ft 184 kts 90°
2026-05-04 09:28 53.45430 -6.58410 3624 ft 184 kts 91°
2026-05-04 09:28 53.45322 -6.56270 3530 ft 184 kts 92°
2026-05-04 09:28 53.45202 -6.54126 3388 ft 184 kts 92°
2026-05-04 09:28 53.45076 -6.51990 3137 ft 183 kts 92°
2026-05-04 09:29 53.44951 -6.49878 2873 ft 181 kts 92°
2026-05-04 09:29 53.44827 -6.47769 2625 ft 180 kts 92°
2026-05-04 09:29 53.44706 -6.45689 2373 ft 177 kts 93°
2026-05-04 09:29 53.44589 -6.43685 2122 ft 166 kts 92°
2026-05-04 09:30 53.44482 -6.41826 1888 ft 153 kts 91°
2026-05-04 09:30 53.44384 -6.40092 1688 ft 147 kts 91°
2026-05-04 09:30 53.44289 -6.38384 1489 ft 146 kts 91°
2026-05-04 09:30 53.44227 -6.37260 1371 ft 146 kts 91°
2026-05-04 09:31 53.44131 -6.35560 1185 ft 146 kts 92°
2026-05-04 09:31 53.44034 -6.33867 970 ft 145 kts 90°
2026-05-04 09:31 53.43946 -6.32182 757 ft 145 kts 91°
2026-05-04 09:31 53.43818 -6.29950 472 ft 145 kts 89°
2026-05-04 09:32 53.43730 -6.28245 293 ft 147 kts 91°
2026-05-04 09:32 53.43669 -6.27105 220 ft 137 kts 97°
2026-05-04 09:34 53.43391 -6.25271 225 ft 15 kts 275°
2026-05-04 09:34 53.43401 -6.25473 226 ft 19 kts 275°
2026-05-04 09:34 53.43398 -6.25636 227 ft 10 kts 225°
2026-05-04 09:34 53.43313 -6.25619 225 ft 16 kts 156°
2026-05-04 09:35 53.43211 -6.25544 224 ft 16 kts 156°
2026-05-04 09:35 53.43112 -6.25470 225 ft 15 kts 156°
2026-05-04 09:35 53.43011 -6.25399 226 ft 15 kts 157°
2026-05-04 09:35 53.42938 -6.25348 224 ft 4 kts 157°
2026-05-04 09:37 53.42643 -6.24899 224 ft 6 kts 142°
2026-05-04 09:37 53.42625 -6.24849 227 ft 5 kts 101°
2026-05-04 09:38 53.42624 -6.24788 221 ft 2 kts 90°
2026-05-04 09:38 53.42624 -6.24779 219 ft 0 kts 90°
2026-05-04 09:38 53.42624 -6.24778 219 ft 0 kts 90°
2026-05-04 09:39 53.42624 -6.24756 219 ft 4 kts 91°
2026-05-04 09:39 53.42624 -6.24750 219 ft 0 kts 91°
2026-05-04 09:40 53.42624 -6.24745 219 ft 2 kts 91°
2026-05-04 09:40 53.42624 -6.24728 219 ft 0 kts 91°